Flag for Germany Weather past 2 weeks in Emmendingen, Baden-Württemberg, Germany

Now
44 °F

Overcast.


Feels Like: 41 °F
Forecast: 35 / 48 °F
Wind: 6 mph from Southwest

Location: Lahr

Current Time: Apr 2, 2015 at 12:18:54 AM

Latest Report: Apr 1, 2015 at 11:00 PM


Visibility: 28 mi

Pressure: 30.28 "Hg

Humidity: 60%

Dew point: 31 °F

Location of EmmendingenLocation

Historic Weather in Emmendingen — Graph

°F

Emmendingen temperature yesterday

Maximum temperature yesterday: 49 °F (at 12:00 AM)
Minimum temperature yesterday: 39 °F (at 10:00 AM)
Average temperature yesterday: 44 °F

Past Weeks' High & Low Weather Summary

 TemperatureHumidityPressure
High64 °F (Mar 18, 5:00 PM)99% (Mar 18, 7:00 AM)30.31 "Hg (Mar 18, 7:00 AM)
Low31 °F (Mar 20, 7:00 AM)38% (Mar 20, 3:00 PM)29.63 "Hg (Mar 30, 5:00 AM)
Average47 °F72%30.01 "Hg
* Reported Mar 17 10:00 PM — Apr 1 11:00 PM, Emmendingen, Weather by CustomWeather, © 2015

Note: Actual official high and low records may vary slightly from our data, if they occured in-between our weather recording intervals... More about our weather records

Advertising

Emmendingen weather history for previous 24 hours

 ConditionsComfort  
Time TempWeatherWind HumidityBarometerVisibility
11:00 PM
Wed, Apr 1
44 °FOvercast.6 mph60%30.28 "Hg28 mi
10:00 PM44 °FOvercast.5 mph62%30.28 "Hg28 mi
9:00 PM44 °FOvercast.5 mph62%30.29 "Hg22 mi
8:00 PM42 °FOvercast.5 mph66%30.28 "Hg31 mi
7:00 PM46 °FPartly sunny.6 mph65%30.27 "Hg31 mi
6:00 PM45 °FPartly sunny.6 mph68%30.26 "Hg37 mi
5:00 PM46 °FPartly sunny.7 mph58%30.26 "Hg37 mi
4:00 PM48 °FOvercast.9 mph50%30.24 "Hg12 mi
3:00 PM48 °FPartly sunny.7 mph49%30.25 "Hg37 mi
2:00 PM46 °FPartly sunny.9 mph53%30.26 "Hg37 mi
1:00 PM44 °FOvercast.3 mph75%30.25 "Hg28 mi
12:00 PM41 °FSprinkles. Overcast.1 mph79%30.26 "Hg10 mi
11:00 AM39 °FPartly sunny.3 mph86%30.26 "Hg16 mi
10:00 AM39 °FOvercast.7 mph79%30.24 "Hg11 mi
9:00 AM42 °FOvercast.5 mph69%30.20 "Hg17 mi
8:00 AM41 °FPartly sunny.5 mph75%30.18 "Hg22 mi
7:00 AM40 °FOvercast.6 mph78%30.14 "Hg17 mi
6:00 AM39 °FOvercast.5 mph82%30.13 "Hg43 mi
5:00 AM40 °FOvercast.2 mph86%30.12 "Hg43 mi
4:00 AM40 °FOvercast.5 mph80%30.11 "Hg43 mi
3:00 AM47 °FOvercast.10 mph55%30.07 "Hg34 mi
2:00 AM47 °FPassing clouds.8 mph54%30.06 "Hg34 mi
1:00 AM48 °FPassing clouds.10 mph51%30.05 "Hg43 mi
12:00 AM49 °FClear.10 mph51%30.02 "Hg37 mi
Weather by CustomWeather, © 2015

See weather overviewHow to use our weather pages